Year,Month,Day,Hour,Minute,Value (Times are PST for temperature in C)
2013,06,13,00,00,8.60
2013,06,13,00,01,8.60
2013,06,13,00,02,8.60
2013,06,13,00,03,8.60
2013,06,13,00,04,8.60
2013,06,13,00,05,8.60
2013,06,13,00,06,8.60
2013,06,13,00,07,8.60
2013,06,13,00,08,8.60
2013,06,13,00,09,8.60
2013,06,13,00,10,8.60
2013,06,13,00,11,8.60
2013,06,13,00,12,8.60
2013,06,13,00,13,8.60
2013,06,13,00,14,8.60
2013,06,13,00,15,8.60
2013,06,13,00,16,8.60
2013,06,13,00,17,8.60
2013,06,13,00,18,8.60
2013,06,13,00,19,8.60
2013,06,13,00,20,8.60
2013,06,13,00,21,8.60
2013,06,13,00,22,8.60
2013,06,13,00,23,8.60
2013,06,13,00,24,8.60
2013,06,13,00,25,8.60
2013,06,13,00,26,8.60
2013,06,13,00,27,8.60
2013,06,13,00,28,8.60
2013,06,13,00,29,8.60
2013,06,13,00,30,8.60
2013,06,13,00,31,8.60
2013,06,13,00,32,8.60
2013,06,13,00,33,8.60
2013,06,13,00,34,8.60
2013,06,13,00,35,8.60
2013,06,13,00,36,8.60
2013,06,13,00,37,8.60
2013,06,13,00,38,8.60
2013,06,13,00,39,8.60
2013,06,13,00,40,8.60
2013,06,13,00,41,8.60
2013,06,13,00,42,8.60
2013,06,13,00,43,8.60
2013,06,13,00,44,8.60
2013,06,13,00,45,8.60
2013,06,13,00,46,8.60
2013,06,13,00,47,8.60
2013,06,13,00,48,8.60
2013,06,13,00,49,8.60
2013,06,13,00,50,8.60
2013,06,13,00,51,8.60
2013,06,13,00,52,8.60
2013,06,13,00,53,8.60
2013,06,13,00,54,8.60
2013,06,13,00,55,8.60
2013,06,13,00,56,8.60
2013,06,13,00,57,8.60
2013,06,13,00,58,8.60
2013,06,13,00,59,8.60
2013,06,13,01,00,8.60
2013,06,13,01,01,8.60
2013,06,13,01,02,8.60
2013,06,13,01,03,8.60
2013,06,13,01,04,8.60
2013,06,13,01,05,8.60
2013,06,13,01,06,8.50
2013,06,13,01,07,8.50
2013,06,13,01,08,8.50
2013,06,13,01,09,8.50
2013,06,13,01,10,8.50
2013,06,13,01,11,8.50
2013,06,13,01,12,8.50
2013,06,13,01,13,8.50
2013,06,13,01,14,8.50
2013,06,13,01,15,8.40
2013,06,13,01,16,8.50
2013,06,13,01,17,8.50
2013,06,13,01,18,8.50
2013,06,13,01,19,8.40
2013,06,13,01,20,8.40
2013,06,13,01,21,8.40
2013,06,13,01,22,8.40
2013,06,13,01,23,8.40
2013,06,13,01,24,8.40
2013,06,13,01,25,8.40
2013,06,13,01,26,8.40
2013,06,13,01,27,8.40
2013,06,13,01,28,8.40
2013,06,13,01,29,8.40
2013,06,13,01,30,8.40
2013,06,13,01,31,8.40
2013,06,13,01,32,8.40
2013,06,13,01,33,8.40
2013,06,13,01,34,8.40
2013,06,13,01,35,8.40
2013,06,13,01,36,8.40
2013,06,13,01,37,8.40
2013,06,13,01,38,8.30
2013,06,13,01,39,8.40
2013,06,13,01,40,8.30
2013,06,13,01,41,8.30
2013,06,13,01,42,8.30
2013,06,13,01,43,8.30
2013,06,13,01,44,8.30
2013,06,13,01,45,8.30
2013,06,13,01,46,8.30
2013,06,13,01,47,8.30
2013,06,13,01,48,8.30
2013,06,13,01,49,8.30
2013,06,13,01,50,8.30
2013,06,13,01,51,8.30
2013,06,13,01,52,8.30
2013,06,13,01,53,8.30
2013,06,13,01,54,8.20
2013,06,13,01,55,8.20
2013,06,13,01,56,8.20
2013,06,13,01,57,8.20
2013,06,13,01,58,8.20
2013,06,13,01,59,8.20
2013,06,13,02,00,8.20
2013,06,13,02,01,8.20
2013,06,13,02,02,8.20
2013,06,13,02,03,8.20
2013,06,13,02,04,8.20
2013,06,13,02,05,8.20
2013,06,13,02,06,8.20
2013,06,13,02,07,8.20
2013,06,13,02,08,8.20
2013,06,13,02,09,8.20
2013,06,13,02,10,8.20
2013,06,13,02,11,8.20
2013,06,13,02,12,8.20
2013,06,13,02,13,8.20
2013,06,13,02,14,8.20
2013,06,13,02,15,8.20
2013,06,13,02,16,8.20
2013,06,13,02,17,8.20
2013,06,13,02,18,8.20
2013,06,13,02,19,8.20
2013,06,13,02,20,8.20
2013,06,13,02,21,8.20
2013,06,13,02,22,8.20
2013,06,13,02,23,8.20
2013,06,13,02,24,8.20
2013,06,13,02,25,8.20
2013,06,13,02,26,8.20
2013,06,13,02,27,8.20
2013,06,13,02,28,8.20
2013,06,13,02,29,8.20
2013,06,13,02,30,8.20
2013,06,13,02,31,8.20
2013,06,13,02,32,8.20
2013,06,13,02,33,8.20
2013,06,13,02,34,8.20
2013,06,13,02,35,8.20
2013,06,13,02,36,8.20
2013,06,13,02,37,8.20
2013,06,13,02,38,8.20
2013,06,13,02,39,8.20
2013,06,13,02,40,8.20
2013,06,13,02,41,8.20
2013,06,13,02,42,8.20
2013,06,13,02,43,8.20
2013,06,13,02,44,8.20
2013,06,13,02,45,8.20
2013,06,13,02,46,8.20
2013,06,13,02,47,8.20
2013,06,13,02,48,8.20
2013,06,13,02,49,8.20
2013,06,13,02,50,8.20
2013,06,13,02,51,8.20
2013,06,13,02,52,8.20
2013,06,13,02,53,8.20
2013,06,13,02,54,8.20
2013,06,13,02,55,8.20
2013,06,13,02,56,8.20
2013,06,13,02,57,8.20
2013,06,13,02,58,8.20
2013,06,13,02,59,8.20
2013,06,13,03,00,8.20
2013,06,13,03,01,8.20
2013,06,13,03,02,8.10
2013,06,13,03,03,8.10
2013,06,13,03,06,8.10
2013,06,13,03,07,8.10
2013,06,13,03,08,8.10
2013,06,13,03,09,8.10
2013,06,13,03,10,8.10
2013,06,13,03,11,8.10
2013,06,13,03,12,8.00
2013,06,13,03,13,8.00
2013,06,13,03,14,8.00
2013,06,13,03,15,8.00
2013,06,13,03,16,8.00
2013,06,13,03,17,8.00
2013,06,13,03,18,7.90
2013,06,13,03,19,7.90
2013,06,13,03,20,7.90
2013,06,13,03,21,7.90
2013,06,13,03,22,7.90
2013,06,13,03,23,7.90
2013,06,13,03,24,7.90
2013,06,13,03,25,7.90
2013,06,13,03,26,7.90
2013,06,13,03,27,7.90
2013,06,13,03,28,7.80
2013,06,13,03,29,7.80
2013,06,13,03,30,7.80
2013,06,13,03,31,7.80
2013,06,13,03,32,7.80
2013,06,13,03,33,7.80
2013,06,13,03,34,7.70
2013,06,13,03,35,7.70
2013,06,13,03,36,7.70
2013,06,13,03,37,7.70
2013,06,13,03,38,7.70
2013,06,13,03,39,7.70
2013,06,13,03,40,7.70
2013,06,13,03,41,7.70
2013,06,13,03,42,7.70
2013,06,13,03,43,7.70
2013,06,13,03,44,7.60
2013,06,13,03,45,7.60
2013,06,13,03,46,7.60
2013,06,13,03,47,7.60
2013,06,13,03,48,7.60
2013,06,13,03,49,7.60
2013,06,13,03,50,7.60
2013,06,13,03,51,7.60
2013,06,13,03,52,7.60
2013,06,13,03,53,7.50
2013,06,13,03,54,7.50
2013,06,13,03,55,7.50
2013,06,13,03,56,7.50
2013,06,13,03,57,7.50
2013,06,13,03,58,7.50
2013,06,13,03,59,7.50
2013,06,13,04,00,7.50
2013,06,13,04,01,7.50
2013,06,13,04,02,7.40
2013,06,13,04,03,7.40
2013,06,13,04,04,7.40
2013,06,13,04,05,7.40
2013,06,13,04,06,7.40
2013,06,13,04,07,7.40
2013,06,13,04,08,7.40
2013,06,13,04,09,7.30
2013,06,13,04,10,7.30
2013,06,13,04,11,7.30
2013,06,13,04,12,7.30
2013,06,13,04,13,7.30
2013,06,13,04,14,7.30
2013,06,13,04,15,7.20
2013,06,13,04,16,7.20
2013,06,13,04,17,7.20
2013,06,13,04,18,7.20
2013,06,13,04,19,7.20
2013,06,13,04,20,7.20
2013,06,13,04,21,7.20
2013,06,13,04,22,7.20
2013,06,13,04,23,7.10
2013,06,13,04,24,7.10
2013,06,13,04,25,7.10
2013,06,13,04,26,7.10
2013,06,13,04,27,7.00
2013,06,13,04,28,7.00
2013,06,13,04,29,7.00
2013,06,13,04,30,7.00
2013,06,13,04,31,7.00
2013,06,13,04,32,6.90
2013,06,13,04,33,6.90
2013,06,13,04,34,6.90
2013,06,13,04,35,6.90
2013,06,13,04,36,6.90
2013,06,13,04,37,6.90
2013,06,13,04,38,6.80
2013,06,13,04,39,6.80
2013,06,13,04,40,6.80
2013,06,13,04,41,6.80
2013,06,13,04,42,6.80
2013,06,13,04,43,6.80
2013,06,13,04,44,6.80
2013,06,13,04,45,6.80
2013,06,13,04,46,6.80
2013,06,13,04,47,6.70
2013,06,13,04,48,6.70
2013,06,13,04,49,6.70
2013,06,13,04,50,6.70
2013,06,13,04,51,6.70
2013,06,13,04,52,6.70
2013,06,13,04,53,6.70
2013,06,13,04,54,6.70
2013,06,13,04,55,6.70
2013,06,13,04,56,6.70
2013,06,13,04,57,6.60
2013,06,13,04,58,6.60
2013,06,13,04,59,6.60
2013,06,13,05,00,6.60
2013,06,13,05,01,6.60
2013,06,13,05,02,6.60
2013,06,13,05,03,6.60
2013,06,13,05,04,6.50
2013,06,13,05,05,6.50
2013,06,13,05,06,6.50
2013,06,13,05,07,6.50
2013,06,13,05,08,6.40
2013,06,13,05,09,6.40
2013,06,13,05,10,6.40
2013,06,13,05,11,6.40
2013,06,13,05,12,6.40
2013,06,13,05,13,6.40
2013,06,13,05,14,6.40
2013,06,13,05,15,6.40
2013,06,13,05,16,6.40
2013,06,13,05,17,6.40
2013,06,13,05,18,6.40
2013,06,13,05,19,6.40
2013,06,13,05,20,6.40
2013,06,13,05,21,6.40
2013,06,13,05,22,6.40
2013,06,13,05,23,6.40
2013,06,13,05,24,6.40
2013,06,13,05,25,6.40
2013,06,13,05,26,6.40
2013,06,13,05,27,6.40
2013,06,13,05,28,6.40
2013,06,13,05,29,6.40
2013,06,13,05,30,6.30
2013,06,13,05,31,6.30
2013,06,13,05,32,6.30
2013,06,13,05,33,6.30
2013,06,13,05,34,6.30
2013,06,13,05,35,6.30
2013,06,13,05,36,6.30
2013,06,13,05,37,6.30
2013,06,13,05,38,6.30
2013,06,13,05,39,6.30
2013,06,13,05,40,6.30
2013,06,13,05,41,6.20
2013,06,13,05,42,6.20
2013,06,13,05,43,6.20
2013,06,13,05,44,6.20
2013,06,13,05,45,6.20
2013,06,13,05,46,6.20
2013,06,13,05,47,6.20
2013,06,13,05,48,6.20
2013,06,13,05,49,6.20
2013,06,13,05,50,6.20
2013,06,13,05,51,6.20
2013,06,13,05,52,6.10
2013,06,13,05,53,6.20
2013,06,13,05,54,6.20
2013,06,13,05,55,6.20
2013,06,13,05,56,6.20
2013,06,13,05,57,6.10
2013,06,13,05,58,6.10
2013,06,13,05,59,6.20
2013,06,13,06,00,6.20
2013,06,13,06,01,6.20
2013,06,13,06,02,6.10
2013,06,13,06,03,6.20
2013,06,13,06,04,6.10
2013,06,13,06,05,6.10
2013,06,13,06,06,6.10
2013,06,13,06,07,6.20
2013,06,13,06,08,6.20
2013,06,13,06,09,6.20
2013,06,13,06,10,6.20
2013,06,13,06,11,6.20
2013,06,13,06,12,6.20
2013,06,13,06,13,6.20
2013,06,13,06,14,6.20
2013,06,13,06,15,6.20
2013,06,13,06,16,6.20
2013,06,13,06,17,6.20
2013,06,13,06,18,6.20
2013,06,13,06,19,6.30
2013,06,13,06,20,6.30
2013,06,13,06,21,6.30
2013,06,13,06,22,6.30
2013,06,13,06,23,6.30
2013,06,13,06,24,6.30
2013,06,13,06,25,6.30
2013,06,13,06,26,6.30
2013,06,13,06,27,6.30
2013,06,13,06,28,6.30
2013,06,13,06,29,6.40
2013,06,13,06,30,6.40
2013,06,13,06,31,6.40
2013,06,13,06,32,6.40
2013,06,13,06,33,6.40
2013,06,13,06,34,6.40
2013,06,13,06,35,6.50
2013,06,13,06,36,6.50
2013,06,13,06,37,6.50
2013,06,13,06,38,6.60
2013,06,13,06,39,6.60
2013,06,13,06,40,6.60
2013,06,13,06,41,6.60
2013,06,13,06,42,6.60
2013,06,13,06,43,6.60
2013,06,13,06,44,6.60
2013,06,13,06,45,6.60
2013,06,13,06,46,6.60
2013,06,13,06,47,6.70
2013,06,13,06,48,6.70
2013,06,13,06,49,6.70
2013,06,13,06,50,6.70
2013,06,13,06,51,6.70
2013,06,13,06,52,6.80
2013,06,13,06,53,6.80
2013,06,13,06,54,6.80
2013,06,13,06,55,6.80
2013,06,13,06,56,6.80
2013,06,13,06,57,6.80
2013,06,13,06,58,6.80
2013,06,13,06,59,6.90
2013,06,13,07,00,6.90
2013,06,13,07,01,6.90
2013,06,13,07,02,6.90
2013,06,13,07,03,7.00
2013,06,13,07,04,7.00
2013,06,13,07,05,7.00
2013,06,13,07,06,7.00
2013,06,13,07,07,7.10
2013,06,13,07,08,7.10
2013,06,13,07,09,7.10
2013,06,13,07,10,7.10
2013,06,13,07,11,7.20
2013,06,13,07,12,7.20
2013,06,13,07,13,7.20
2013,06,13,07,14,7.20
2013,06,13,07,15,7.30
2013,06,13,07,16,7.40
2013,06,13,07,17,7.40
2013,06,13,07,18,7.50
2013,06,13,07,19,7.50
2013,06,13,07,20,7.60
2013,06,13,07,21,7.60
2013,06,13,07,22,7.60
2013,06,13,07,23,7.70
2013,06,13,07,24,7.70
2013,06,13,07,25,7.80
2013,06,13,07,26,7.80
2013,06,13,07,27,7.80
2013,06,13,07,28,7.80
2013,06,13,07,29,7.90
2013,06,13,07,30,7.90
2013,06,13,07,31,7.90
2013,06,13,07,32,7.90
2013,06,13,07,33,8.00
2013,06,13,07,34,8.00
2013,06,13,07,35,8.10
2013,06,13,07,36,8.10
2013,06,13,07,37,8.10
2013,06,13,07,38,8.20
2013,06,13,07,39,8.20
2013,06,13,07,40,8.20
2013,06,13,07,41,8.30
2013,06,13,07,42,8.30
2013,06,13,07,43,8.40
2013,06,13,07,44,8.40
2013,06,13,07,45,8.50
2013,06,13,07,46,8.60
2013,06,13,07,47,8.60
2013,06,13,07,48,8.70
2013,06,13,07,49,8.70
2013,06,13,07,50,8.80
2013,06,13,07,51,8.90
2013,06,13,07,52,8.90
2013,06,13,07,53,9.00
2013,06,13,07,54,9.10
2013,06,13,07,55,9.10
2013,06,13,07,56,9.20
2013,06,13,07,57,9.30
2013,06,13,07,58,9.30
2013,06,13,07,59,9.40
2013,06,13,08,00,9.50
2013,06,13,08,01,9.60
2013,06,13,08,02,9.60
2013,06,13,08,03,9.70
2013,06,13,08,04,9.70
2013,06,13,08,05,9.80
2013,06,13,08,06,9.80
2013,06,13,08,07,9.90
2013,06,13,08,08,10.00
2013,06,13,08,09,10.10
2013,06,13,08,10,10.10
2013,06,13,08,11,10.20
2013,06,13,08,12,10.30
2013,06,13,08,13,10.40
2013,06,13,08,14,10.50
2013,06,13,08,15,10.60
2013,06,13,08,16,10.70
2013,06,13,08,17,10.80
2013,06,13,08,18,10.80
2013,06,13,08,19,10.90
2013,06,13,08,20,11.00
2013,06,13,08,21,11.10
2013,06,13,08,22,11.20
2013,06,13,08,23,11.30
2013,06,13,08,24,11.50
2013,06,13,08,25,11.60
2013,06,13,08,26,11.70
2013,06,13,08,27,11.80
2013,06,13,08,28,12.00
2013,06,13,08,29,12.00
2013,06,13,08,30,12.10
2013,06,13,08,31,12.20
2013,06,13,08,32,12.30
2013,06,13,08,33,12.30
2013,06,13,08,34,12.30
2013,06,13,08,35,12.40
2013,06,13,08,36,12.50
2013,06,13,08,37,12.60
2013,06,13,08,38,12.60
2013,06,13,08,39,12.70
2013,06,13,08,40,12.80
2013,06,13,08,41,12.90
2013,06,13,08,42,13.00
2013,06,13,08,43,13.00
2013,06,13,08,44,13.10
2013,06,13,08,45,13.20
2013,06,13,08,46,13.30
2013,06,13,08,47,13.30
2013,06,13,08,48,13.40
2013,06,13,08,49,13.50
2013,06,13,08,50,13.60
2013,06,13,08,51,13.70
2013,06,13,08,52,13.70
2013,06,13,08,53,13.80
2013,06,13,08,54,13.80
2013,06,13,08,55,13.90
2013,06,13,08,56,13.90
2013,06,13,08,57,14.00
2013,06,13,08,58,14.10
2013,06,13,08,59,14.10
2013,06,13,09,00,14.20
2013,06,13,09,01,14.30
2013,06,13,09,02,14.30
2013,06,13,09,03,14.40
2013,06,13,09,04,14.50
2013,06,13,09,05,14.60
2013,06,13,09,06,14.60
2013,06,13,09,07,14.70
2013,06,13,09,08,14.70
2013,06,13,09,09,14.70
2013,06,13,09,10,14.70
2013,06,13,09,11,14.60
2013,06,13,09,12,14.60
2013,06,13,09,13,14.60
2013,06,13,09,14,14.50
2013,06,13,09,15,14.50
2013,06,13,09,16,14.40
2013,06,13,09,17,14.40
2013,06,13,09,18,14.30
2013,06,13,09,19,14.30
2013,06,13,09,20,14.30
2013,06,13,09,21,14.30
2013,06,13,09,22,14.20
2013,06,13,09,23,14.20
2013,06,13,09,24,14.20
2013,06,13,09,25,14.20
2013,06,13,09,26,14.20
2013,06,13,09,27,14.30
2013,06,13,09,28,14.30
2013,06,13,09,29,14.40
2013,06,13,09,30,14.40
2013,06,13,09,31,14.50
2013,06,13,09,32,14.60
2013,06,13,09,33,14.60
2013,06,13,09,34,14.60
2013,06,13,09,35,14.60
2013,06,13,09,36,14.70
2013,06,13,09,37,14.70
2013,06,13,09,38,14.80
2013,06,13,09,39,14.90
2013,06,13,09,40,15.00
2013,06,13,09,41,15.00
2013,06,13,09,42,15.00
2013,06,13,09,43,15.00
2013,06,13,09,44,15.10
2013,06,13,09,45,15.20
2013,06,13,09,46,15.30
2013,06,13,09,47,15.30
2013,06,13,09,48,15.40
2013,06,13,09,49,15.40
2013,06,13,09,50,15.40
2013,06,13,09,51,15.40
2013,06,13,09,52,15.40
2013,06,13,09,53,15.40
2013,06,13,09,54,15.40
2013,06,13,09,55,15.30
2013,06,13,09,56,15.30
2013,06,13,09,57,15.30
2013,06,13,09,58,15.30
2013,06,13,09,59,15.20
2013,06,13,10,00,15.20
2013,06,13,10,01,15.20
2013,06,13,10,02,15.20
2013,06,13,10,03,15.20
2013,06,13,10,04,15.20
2013,06,13,10,05,15.20
2013,06,13,10,06,15.20
2013,06,13,10,07,15.10
2013,06,13,10,08,15.00
2013,06,13,10,09,15.00
2013,06,13,10,10,15.00
2013,06,13,10,11,15.00
2013,06,13,10,12,15.00
2013,06,13,10,13,15.00
2013,06,13,10,14,14.90
2013,06,13,10,15,14.80
2013,06,13,10,16,14.80
2013,06,13,10,17,14.70
2013,06,13,10,18,14.70
2013,06,13,10,19,14.70
2013,06,13,10,20,14.60
2013,06,13,10,21,14.60
2013,06,13,10,22,14.60
2013,06,13,10,23,14.60
2013,06,13,10,24,14.60
2013,06,13,10,25,14.60
2013,06,13,10,26,14.60
2013,06,13,10,27,14.70
2013,06,13,10,28,14.70
2013,06,13,10,29,14.80
2013,06,13,10,30,14.90
2013,06,13,10,31,15.00
2013,06,13,10,32,15.00
2013,06,13,10,33,15.00
2013,06,13,10,34,15.00
2013,06,13,10,35,15.00
2013,06,13,10,36,15.00
2013,06,13,10,37,15.00
2013,06,13,10,38,15.20
2013,06,13,10,39,15.30
2013,06,13,10,40,15.40
2013,06,13,10,41,15.40
2013,06,13,10,42,15.40
2013,06,13,10,43,15.40
2013,06,13,10,44,15.40
2013,06,13,10,45,15.40
2013,06,13,10,46,15.40
2013,06,13,10,47,15.50
2013,06,13,10,48,15.50
2013,06,13,10,49,15.60
2013,06,13,10,50,15.70
2013,06,13,10,51,15.80
2013,06,13,10,52,15.80
2013,06,13,10,53,15.90
2013,06,13,10,54,16.10
2013,06,13,10,55,16.20
2013,06,13,10,56,16.20
2013,06,13,10,57,16.30
2013,06,13,10,58,16.30
2013,06,13,10,59,16.20
2013,06,13,11,00,16.30
2013,06,13,11,01,16.30
2013,06,13,11,02,16.30
2013,06,13,11,03,16.30
2013,06,13,11,04,16.40
2013,06,13,11,05,16.40
2013,06,13,11,06,16.40
2013,06,13,11,07,16.40
2013,06,13,11,08,16.40
2013,06,13,11,09,16.40
2013,06,13,11,10,16.40
2013,06,13,11,11,16.40
2013,06,13,11,12,16.50
2013,06,13,11,13,16.50
2013,06,13,11,14,16.60
2013,06,13,11,15,16.60
2013,06,13,11,16,16.60
2013,06,13,11,17,16.60
2013,06,13,11,18,16.70
2013,06,13,11,19,16.70
2013,06,13,11,20,16.70
2013,06,13,11,21,16.60
2013,06,13,11,22,16.70
2013,06,13,11,23,16.60
2013,06,13,11,24,16.60
2013,06,13,11,25,16.60
2013,06,13,11,26,16.70
2013,06,13,11,27,16.70
2013,06,13,11,28,16.80
2013,06,13,11,29,16.80
2013,06,13,11,30,16.80
2013,06,13,11,31,16.80
2013,06,13,11,32,16.80
2013,06,13,11,33,16.90
2013,06,13,11,34,16.90
2013,06,13,11,35,16.90
2013,06,13,11,36,17.00
2013,06,13,11,37,17.00
2013,06,13,11,38,17.10
2013,06,13,11,39,17.20
2013,06,13,11,40,17.20
2013,06,13,11,41,17.30
2013,06,13,11,42,17.40
2013,06,13,11,43,17.40
2013,06,13,11,44,17.50
2013,06,13,11,45,17.60
2013,06,13,11,46,17.70
2013,06,13,11,47,17.80
2013,06,13,11,48,17.90
2013,06,13,11,49,18.00
2013,06,13,11,50,18.00
2013,06,13,11,51,18.00
2013,06,13,11,52,18.00
2013,06,13,11,53,18.00
2013,06,13,11,54,18.00
2013,06,13,11,55,17.90
2013,06,13,11,56,17.80
2013,06,13,11,57,17.70
2013,06,13,11,58,17.70
2013,06,13,11,59,17.70
2013,06,13,12,00,17.70
2013,06,13,12,01,17.70
2013,06,13,12,02,17.70
2013,06,13,12,03,17.70
2013,06,13,12,04,17.70
2013,06,13,12,05,17.80
2013,06,13,12,06,17.90
2013,06,13,12,07,17.80
2013,06,13,12,08,17.70
2013,06,13,12,09,17.70
2013,06,13,12,10,17.80
2013,06,13,12,11,17.80
2013,06,13,12,12,17.80
2013,06,13,12,13,17.80
2013,06,13,12,14,17.80
2013,06,13,12,15,17.70
2013,06,13,12,16,17.60
2013,06,13,12,17,17.60
2013,06,13,12,18,17.60
2013,06,13,12,19,17.50
2013,06,13,12,20,17.50
2013,06,13,12,21,17.50
2013,06,13,12,22,17.50
2013,06,13,12,23,17.40
2013,06,13,12,24,17.30
2013,06,13,12,25,17.20
2013,06,13,12,26,17.20
2013,06,13,12,27,17.20
2013,06,13,12,28,17.20
2013,06,13,12,29,17.20
2013,06,13,12,30,17.20
2013,06,13,12,31,17.10
2013,06,13,12,32,17.20
2013,06,13,12,33,17.20
2013,06,13,12,34,17.20
2013,06,13,12,35,17.20
2013,06,13,12,36,17.20
2013,06,13,12,37,17.20
2013,06,13,12,38,17.20
2013,06,13,12,39,17.20
2013,06,13,12,40,17.20
2013,06,13,12,41,17.20
2013,06,13,12,42,17.20
2013,06,13,12,43,17.20
2013,06,13,12,44,17.10
2013,06,13,12,45,17.10
2013,06,13,12,46,17.10
2013,06,13,12,47,17.10
2013,06,13,12,48,17.10
2013,06,13,12,49,17.00
2013,06,13,12,50,17.00
2013,06,13,12,51,16.90
2013,06,13,12,52,16.90
2013,06,13,12,53,16.90
2013,06,13,12,54,16.90
2013,06,13,12,55,16.80
2013,06,13,12,56,16.80
2013,06,13,12,57,16.80
2013,06,13,12,58,16.80
2013,06,13,12,59,16.80
2013,06,13,13,00,16.80
2013,06,13,13,01,16.80
2013,06,13,13,02,16.80
2013,06,13,13,03,16.80
2013,06,13,13,04,16.80
2013,06,13,13,05,16.80
2013,06,13,13,06,16.80
2013,06,13,13,07,16.80
2013,06,13,13,08,16.90
2013,06,13,13,09,17.00
2013,06,13,13,10,17.00
2013,06,13,13,11,17.10
2013,06,13,13,12,17.20
2013,06,13,13,13,17.20
2013,06,13,13,14,17.30
2013,06,13,13,15,17.30
2013,06,13,13,16,17.40
2013,06,13,13,17,17.40
2013,06,13,13,18,17.50
2013,06,13,13,19,17.50
2013,06,13,13,20,17.60
2013,06,13,13,21,17.60
2013,06,13,13,22,17.60
2013,06,13,13,23,17.70
2013,06,13,13,24,17.70
2013,06,13,13,25,17.80
2013,06,13,13,26,17.80
2013,06,13,13,27,17.80
2013,06,13,13,28,17.80
2013,06,13,13,29,17.80
2013,06,13,13,30,17.80
2013,06,13,13,31,17.80
2013,06,13,13,32,17.90
2013,06,13,13,33,17.90
2013,06,13,13,34,17.90
2013,06,13,13,35,17.90
2013,06,13,13,36,17.90
2013,06,13,13,37,17.90
2013,06,13,13,38,17.90
2013,06,13,13,39,18.00
2013,06,13,13,40,18.00
2013,06,13,13,41,18.00
2013,06,13,13,42,18.00
2013,06,13,13,43,18.00
2013,06,13,13,44,17.90
2013,06,13,13,45,17.90
2013,06,13,13,46,17.90
2013,06,13,13,47,17.80
2013,06,13,13,48,17.80
2013,06,13,13,49,17.70
2013,06,13,13,50,17.70
2013,06,13,13,51,17.70
2013,06,13,13,52,17.60
2013,06,13,13,53,17.60
2013,06,13,13,54,17.60
2013,06,13,13,55,17.60
2013,06,13,13,56,17.60
2013,06,13,13,57,17.70
2013,06,13,13,58,17.70
2013,06,13,13,59,17.80
2013,06,13,14,00,17.80
2013,06,13,14,01,17.90
2013,06,13,14,02,17.90
2013,06,13,14,03,18.00
2013,06,13,14,04,18.10
2013,06,13,14,05,18.10
2013,06,13,14,06,18.20
2013,06,13,14,07,18.20
2013,06,13,14,08,18.30
2013,06,13,14,09,18.30
2013,06,13,14,10,18.40
2013,06,13,14,11,18.40
2013,06,13,14,12,18.50
2013,06,13,14,13,18.50
2013,06,13,14,14,18.60
2013,06,13,14,15,18.70
2013,06,13,14,16,18.80
2013,06,13,14,17,18.80
2013,06,13,14,18,18.90
2013,06,13,14,19,18.90
2013,06,13,14,20,19.00
2013,06,13,14,21,19.00
2013,06,13,14,22,19.10
2013,06,13,14,23,19.00
2013,06,13,14,24,19.00
2013,06,13,14,25,18.90
2013,06,13,14,26,18.90
2013,06,13,14,27,18.80
2013,06,13,14,28,18.80
2013,06,13,14,29,18.80
2013,06,13,14,30,18.80
2013,06,13,14,31,18.70
2013,06,13,14,32,18.60
2013,06,13,14,33,18.50
2013,06,13,14,34,18.50
2013,06,13,14,35,18.40
2013,06,13,14,36,18.40
2013,06,13,14,37,18.40
2013,06,13,14,38,18.40
2013,06,13,14,39,18.30
2013,06,13,14,40,18.30
2013,06,13,14,41,18.30
2013,06,13,14,42,18.30
2013,06,13,14,43,18.20
2013,06,13,14,44,18.20
2013,06,13,14,45,18.20
2013,06,13,14,46,18.20
2013,06,13,14,47,18.30
2013,06,13,14,48,18.30
2013,06,13,14,49,18.30
2013,06,13,14,50,18.30
2013,06,13,14,51,18.30
2013,06,13,14,52,18.40
2013,06,13,14,53,18.50
2013,06,13,14,54,18.50
2013,06,13,14,55,18.60
2013,06,13,14,56,18.60
2013,06,13,14,57,18.60
2013,06,13,14,58,18.60
2013,06,13,14,59,18.60
2013,06,13,15,00,18.60
2013,06,13,15,01,18.60
2013,06,13,15,02,18.60
2013,06,13,15,03,18.60
2013,06,13,15,04,18.60
2013,06,13,15,05,18.60
2013,06,13,15,06,18.60
2013,06,13,15,07,18.50
2013,06,13,15,08,18.40
2013,06,13,15,09,18.40
2013,06,13,15,10,18.40
2013,06,13,15,11,18.30
2013,06,13,15,12,18.20
2013,06,13,15,13,18.10
2013,06,13,15,14,18.00
2013,06,13,15,15,18.00
2013,06,13,15,16,17.90
2013,06,13,15,17,17.90
2013,06,13,15,18,17.80
2013,06,13,15,19,17.80
2013,06,13,15,20,17.80
2013,06,13,15,21,17.70
2013,06,13,15,22,17.70
2013,06,13,15,23,17.70
2013,06,13,15,24,17.70
2013,06,13,15,25,17.70
2013,06,13,15,26,17.80
2013,06,13,15,27,17.80
2013,06,13,15,28,17.80
2013,06,13,15,29,17.90
2013,06,13,15,30,17.90
2013,06,13,15,31,17.90
2013,06,13,15,32,17.90
2013,06,13,15,33,17.90
2013,06,13,15,34,18.00
2013,06,13,15,35,18.10
2013,06,13,15,36,18.10
2013,06,13,15,37,18.20
2013,06,13,15,38,18.20
2013,06,13,15,39,18.30
2013,06,13,15,40,18.40
2013,06,13,15,41,18.50
2013,06,13,15,42,18.60
2013,06,13,15,43,18.60
2013,06,13,15,44,18.60
2013,06,13,15,45,18.60
2013,06,13,15,46,18.60
2013,06,13,15,47,18.60
2013,06,13,15,48,18.60
2013,06,13,15,49,18.60
2013,06,13,15,50,18.70
2013,06,13,15,51,18.70
2013,06,13,15,52,18.80
2013,06,13,15,53,18.80
2013,06,13,15,54,18.90
2013,06,13,15,55,18.90
2013,06,13,15,56,18.90
2013,06,13,15,57,19.00
2013,06,13,15,58,19.10
2013,06,13,15,59,19.10
2013,06,13,16,00,19.10
2013,06,13,16,01,19.10
2013,06,13,16,02,19.10
2013,06,13,16,03,19.20
2013,06,13,16,04,19.20
2013,06,13,16,05,19.20
2013,06,13,16,06,19.30
2013,06,13,16,07,19.30
2013,06,13,16,08,19.50
2013,06,13,16,09,19.60
2013,06,13,16,10,19.70
2013,06,13,16,11,19.80
2013,06,13,16,12,19.90
2013,06,13,16,13,19.90
2013,06,13,16,14,19.90
2013,06,13,16,15,20.00
2013,06,13,16,16,20.00
2013,06,13,16,17,20.10
2013,06,13,16,18,20.10
2013,06,13,16,19,20.20
2013,06,13,16,20,20.20
2013,06,13,16,21,20.20
2013,06,13,16,22,20.20
2013,06,13,16,23,20.20
2013,06,13,16,24,20.10
2013,06,13,16,25,20.00
2013,06,13,16,26,19.90
2013,06,13,16,27,19.80
2013,06,13,16,28,19.60
2013,06,13,16,29,19.50
2013,06,13,16,30,19.40
2013,06,13,16,31,19.40
2013,06,13,16,32,19.30
2013,06,13,16,33,19.30
2013,06,13,16,34,19.30
2013,06,13,16,35,19.20
2013,06,13,16,36,19.20
2013,06,13,16,37,19.10
2013,06,13,16,38,19.10
2013,06,13,16,39,19.00
2013,06,13,16,40,19.00
2013,06,13,16,41,18.90
2013,06,13,16,42,18.90
2013,06,13,16,43,18.80
2013,06,13,16,44,18.80
2013,06,13,16,45,18.80
2013,06,13,16,46,18.70
2013,06,13,16,47,18.70
2013,06,13,16,48,18.70
2013,06,13,16,49,18.60
2013,06,13,16,50,18.60
2013,06,13,16,51,18.50
2013,06,13,16,52,18.50
2013,06,13,16,53,18.40
2013,06,13,16,54,18.40
2013,06,13,16,55,18.40
2013,06,13,16,56,18.40
2013,06,13,16,57,18.30
2013,06,13,16,58,18.30
2013,06,13,16,59,18.30
2013,06,13,17,00,18.30
2013,06,13,17,01,18.30
2013,06,13,17,02,18.30
2013,06,13,17,03,18.30
2013,06,13,17,04,18.30
2013,06,13,17,05,18.30
2013,06,13,17,06,18.30
2013,06,13,17,07,18.30
2013,06,13,17,08,18.30
2013,06,13,17,09,18.30
2013,06,13,17,10,18.30
2013,06,13,17,11,18.20
2013,06,13,17,12,18.20
2013,06,13,17,13,18.20
2013,06,13,17,14,18.10
2013,06,13,17,15,18.00
2013,06,13,17,16,17.90
2013,06,13,17,17,17.80
2013,06,13,17,18,17.60
2013,06,13,17,19,17.60
2013,06,13,17,20,17.40
2013,06,13,17,21,17.20
2013,06,13,17,22,17.10
2013,06,13,17,23,16.90
2013,06,13,17,24,16.80
2013,06,13,17,25,16.70
2013,06,13,17,26,16.60
2013,06,13,17,27,16.40
2013,06,13,17,28,16.30
2013,06,13,17,29,16.20
2013,06,13,17,30,16.10
2013,06,13,17,31,16.00
2013,06,13,17,32,15.80
2013,06,13,17,33,15.70
2013,06,13,17,34,15.60
2013,06,13,17,35,15.40
2013,06,13,17,36,15.30
2013,06,13,17,37,15.30
2013,06,13,17,38,15.20
2013,06,13,17,39,15.00
2013,06,13,17,40,15.00
2013,06,13,17,41,15.00
2013,06,13,17,42,15.00